#timestamp,LO_Frequency,Hit,StdDev 
1538982015.5,286046998.4,N
1538982035.4,286047001.1,N
1538982055.2,286046998.9,N
1538982075.0,286046998.9,N
1538982075.9,286046998.9,N
1538982095.8,286046998.4,N
1538982115.6,286046999.1,N
1538982135.4,286046997.0,N
1538982155.3,286046997.0,N
1538982175.1,286046996.9,N
1538982195.9,286046996.5,N
1538982215.7,286046997.7,N
1538982235.6,286046999.4,N
1538982255.4,286046997.1,N
1538982275.2,286046997.6,N
1538982295.1,286046997.4,N
1538982296.0,286046997.4,N
1538982315.8,286046994.9,Y
1538982335.6,286046998.5,P
1538982355.5,286047001.0,P
1538982375.3,286046999.1,N
1538982395.2,286046996.5,Y
1538982415.0,286046998.7,P
1538982415.9,286046998.7,P
1538982435.7,286046998.5,P
1538982455.6,286047000.6,N
1538982475.4,286046998.9,N
1538982495.3,286046999.4,N
1538982515.1,286046998.3,N
1538982516.0,286046998.3,N
1538982535.8,286047001.0,N
1538982555.7,286047000.6,N
1538982575.5,286047001.0,N
1538982595.4,286047000.2,N
1538982615.2,286046998.4,N
1538982635.0,286046998.1,N
1538982635.9,286046998.1,N
1538982655.8,286046998.4,N
1538982675.6,286046998.1,N
1538982695.5,286046996.6,Y
1538982715.3,286046998.7,P
1538982735.1,286046999.3,P
1538982755.9,286046998.3,P
1538982775.7,286046998.8,Y
1538982795.5,286046998.5,P
1538982815.4,286047000.7,P
1538982835.2,286047000.4,N
1538982855.1,286047000.7,N
1538982856.0,286047000.7,N
1538982875.8,286046998.5,N
1538982895.6,286047001.2,N
1538982915.5,286046998.3,N
1538982935.3,286046998.5,N
1538982955.1,286046998.6,N
1538982975.9,286046998.6,N
1538982995.7,286046997.0,N
1538983015.6,286046998.5,N
1538983035.4,286046998.1,N
1538983055.2,286046999.1,N
1538983075.1,286046998.7,N
1538983076.0,286046998.7,N
1538983095.8,286046996.6,Y
1538983115.7,286046998.3,P
1538983135.5,286047001.0,N
1538983155.3,286046998.3,N
1538983175.2,286047000.7,N
1538983195.0,286047000.0,N
1538983195.9,286047000.0,N
1538983215.4,286046999.9,N
1538983235.2,286047000.8,N
1538983255.1,286047000.6,N
1538983256.0,286047000.6,N
1538983275.8,286046999.1,N
1538983295.7,286046997.5,N
1538983315.5,286046997.3,N
1538983335.3,286046997.3,N
1538983355.2,286046997.8,N
1538983375.9,286046995.4,Y
1538983395.7,286046997.2,P
1538983415.6,286046997.4,N
1538983435.4,286046997.0,P
1538983455.3,286046997.1,Y
1538983475.1,286046998.9,P
1538983476.0,286046998.9,N
1538983495.8,286046998.6,N
1538983515.7,286047000.7,N
1538983535.5,286046998.6,N
1538983555.3,286046998.4,N
1538983575.2,286046998.3,N
1538983595.0,286046998.8,N
1538983595.9,286046998.8,N
1538983615.8,286046998.6,N
1538983635.6,286046998.2,N
1538983655.4,286047000.4,N
1538983675.3,286047002.8,Y
1538983695.1,286047001.7,P
1538983715.8,286047004.4,P
1538983735.7,286047001.7,N
1538983755.5,286047001.4,N
1538983775.4,286047002.2,N
1538983795.6,286047000.4,N
1538983815.4,286046999.9,N
1538983835.2,286047002.8,N
1538983855.1,286047002.4,N
1538983856.0,286047002.4,N
1538983875.8,286047002.8,N
1538983895.7,286047001.5,N
1538983915.5,286047002.8,N
1538983935.3,286047002.1,N
1538983955.2,286047004.2,Y
1538983975.0,286047001.9,P
1538983975.9,286047001.9,P
1538983995.7,286047002.7,P
1538984015.6,286047001.9,Y
1538984035.6,286047001.0,P
1538984055.4,286046998.7,N
1538984075.2,286046998.4,N
1538984095.1,286046998.5,N
1538984096.0,286046998.5,N
1538984115.8,286047001.2,N
1538984135.6,286046998.2,N
1538984155.5,286046998.2,N
1538984175.3,286046999.4,N
1538984195.2,286046998.9,N
1538984215.9,286046998.6,N
1538984235.7,286046998.9,N
1538984255.6,286046999.1,N
1538984275.4,286046997.3,N
1538984295.2,286046998.3,N
1538984315.1,286046999.2,N
1538984316.0,286046999.2,N
1538984335.8,286047001.0,N
1538984355.7,286046998.1,N
1538984375.5,286046999.4,N
1538984395.3,286046998.2,N
1538984415.2,286046998.8,N
1538984435.9,286046998.2,N
1538984455.7,286047001.1,N
1538984475.6,286046999.0,N
1538984495.4,286046999.1,N
1538984515.2,286046998.7,N
1538984535.1,286046998.6,N
1538984536.0,286046998.6,N
1538984555.8,286046996.5,Y
1538984575.7,286046999.4,P
1538984595.5,286046996.6,P
1538984615.3,286046996.9,N
1538984635.2,286046998.9,N
1538984655.0,286046998.4,N
1538984655.9,286046998.4,N
1538984675.8,286046998.4,N
1538984695.6,286046999.0,N
1538984715.4,286046999.2,N
1538984735.3,286046998.6,N
1538984755.1,286046998.2,N
1538984775.8,286046999.9,N
1538984795.7,286047000.0,N
1538984815.5,286047002.4,N
1538984835.4,286047000.2,N
1538984855.2,286047000.1,N
1538984875.0,286047000.2,N
1538984875.9,286047000.2,N
1538984895.8,286046998.7,N
1538984915.6,286046999.4,N
1538984935.4,286046998.3,N
1538984955.3,286047000.5,N
1538984975.1,286046999.9,N
1538984995.9,286046999.9,N
1538985015.7,286047001.6,N
1538985035.5,286047002.3,N
1538985055.4,286047000.6,N
1538985075.2,286047000.5,N
1538985095.0,286047000.8,N
1538985095.9,286047000.8,N
1538985115.8,286046998.5,N
1538985135.6,286047002.2,N
1538985155.5,286047002.6,N
1538985175.3,286046999.7,N
1538985195.1,286047000.5,N
1538985215.9,286047000.0,N
1538985235.7,286047002.4,N
1538985255.5,286047002.5,N
1538985275.4,286047001.8,N
1538985295.2,286047004.4,Y
1538985315.1,286047002.4,P
1538985316.0,286047002.4,N
1538985335.8,286047002.6,N
1538985355.6,286047002.7,Y
1538985375.5,286046999.0,P
1538985395.3,286046999.4,N
1538985415.2,286046999.2,N
1538985435.9,286046996.6,N
1538985455.7,286046999.4,N
1538985475.6,286046998.2,N
1538985495.4,286046998.1,N
1538985515.2,286046998.1,N
1538985535.1,286047001.2,N
1538985536.0,286047001.2,N
1538985555.8,286046998.3,N
1538985575.7,286046998.7,N
1538985595.5,286046998.6,N
